TimeCDT,TemperatureF,Dew PointF,Humidity,Sea Level PressureIn,VisibilityMPH,Wind Direction,Wind SpeedMPH,Gust SpeedMPH,PrecipitationIn,Events,Conditions,WindDirDegrees,DateUTC
12:15 AM,50.0,39.2,66,29.97,10.0,Calm,Calm,-,N/A,,Clear,0,2012-09-22 05:15:00
12:35 AM,50.4,39.9,67,29.98,10.0,Calm,Calm,-,N/A,,Clear,0,2012-09-22 05:35:00
12:55 AM,49.8,40.3,70,29.98,10.0,Calm,Calm,-,N/A,,Clear,0,2012-09-22 05:55:00
1:15 AM,49.3,40.6,72,29.98,10.0,Calm,Calm,-,N/A,,Clear,0,2012-09-22 06:15:00
1:35 AM,49.5,39.0,67,29.99,7.0,Calm,Calm,-,N/A,,Clear,0,2012-09-22 06:35:00
1:55 AM,48.2,38.7,70,30.01,10.0,NW,4.6,-,N/A,,Clear,320,2012-09-22 06:55:00
2:15 AM,48.2,38.8,70,30.02,10.0,Calm,Calm,-,N/A,,Clear,0,2012-09-22 07:15:00
2:35 AM,47.3,39.0,73,30.03,10.0,Calm,Calm,-,N/A,,Clear,0,2012-09-22 07:35:00
2:55 AM,45.9,38.5,75,30.05,10.0,NW,3.5,-,N/A,,Clear,320,2012-09-22 07:55:00
3:15 AM,48.0,38.8,71,30.06,10.0,NNW,4.6,-,N/A,,Clear,340,2012-09-22 08:15:00
3:35 AM,55.6,35.8,47,30.07,10.0,North,10.4,17.3,N/A,,Clear,10,2012-09-22 08:35:00
3:55 AM,55.2,34.7,46,30.08,10.0,NNE,9.2,-,N/A,,Clear,20,2012-09-22 08:55:00
4:15 AM,54.7,33.8,45,30.09,10.0,North,8.1,-,N/A,,Clear,10,2012-09-22 09:15:00
4:35 AM,53.6,33.4,46,30.10,10.0,North,8.1,-,N/A,,Clear,360,2012-09-22 09:35:00
4:55 AM,51.6,33.6,50,30.11,10.0,NNW,6.9,-,N/A,,Clear,340,2012-09-22 09:55:00
5:15 AM,48.6,34.0,57,30.12,10.0,Calm,Calm,-,N/A,,Clear,0,2012-09-22 10:15:00
5:35 AM,49.5,33.3,54,30.14,10.0,Calm,Calm,-,N/A,,Clear,0,2012-09-22 10:35:00
5:55 AM,46.4,32.9,59,30.15,10.0,NNW,6.9,-,N/A,,Clear,340,2012-09-22 10:55:00
6:15 AM,45.0,33.4,64,30.16,10.0,North,8.1,-,N/A,,Clear,350,2012-09-22 11:15:00
6:35 AM,43.9,33.1,66,30.17,10.0,North,5.8,-,N/A,,Clear,350,2012-09-22 11:35:00
6:55 AM,44.4,32.0,62,30.19,10.0,North,4.6,-,N/A,,Clear,360,2012-09-22 11:55:00
7:15 AM,43.0,32.9,68,30.20,10.0,North,8.1,-,N/A,,Clear,350,2012-09-22 12:15:00
7:35 AM,43.9,33.8,68,30.22,10.0,North,9.2,-,N/A,,Clear,360,2012-09-22 12:35:00
7:55 AM,47.8,32.4,55,30.22,10.0,North,12.7,-,N/A,,Clear,10,2012-09-22 12:55:00
8:15 AM,49.6,31.1,49,30.22,10.0,North,16.1,20.7,N/A,,Clear,10,2012-09-22 13:15:00
8:35 AM,50.9,31.6,48,30.24,10.0,North,12.7,-,N/A,,Clear,10,2012-09-22 13:35:00
8:55 AM,51.8,26.1,37,30.25,10.0,North,15.0,19.6,N/A,,Clear,10,2012-09-22 13:55:00
9:15 AM,52.3,24.6,34,30.27,10.0,North,10.4,19.6,N/A,,Clear,360,2012-09-22 14:15:00
9:35 AM,53.6,23.0,30,30.27,10.0,North,13.8,19.6,N/A,,Clear,10,2012-09-22 14:35:00
9:55 AM,53.4,23.9,32,30.27,10.0,North,15.0,-,N/A,,Clear,10,2012-09-22 14:55:00
10:15 AM,53.6,23.9,32,30.28,10.0,North,12.7,-,N/A,,Clear,10,2012-09-22 15:15:00
10:35 AM,55.0,21.9,28,30.29,10.0,North,13.8,-,N/A,,Clear,360,2012-09-22 15:35:00
10:55 AM,55.9,20.7,25,30.29,10.0,North,13.8,17.3,N/A,,Clear,10,2012-09-22 15:55:00
11:15 AM,57.4,22.1,26,30.30,10.0,NNE,10.4,-,N/A,,Clear,20,2012-09-22 16:15:00
11:35 AM,58.6,20.8,23,30.30,10.0,NNE,11.5,-,N/A,,Clear,30,2012-09-22 16:35:00
11:55 AM,58.6,20.8,23,30.29,10.0,NNE,10.4,-,N/A,,Clear,20,2012-09-22 16:55:00
12:15 PM,60.1,20.7,22,30.30,10.0,North,11.5,-,N/A,,Clear,10,2012-09-22 17:15:00
12:35 PM,60.3,20.1,21,30.30,10.0,NNW,10.4,17.3,N/A,,Clear,340,2012-09-22 17:35:00
12:55 PM,61.3,17.6,18,30.30,10.0,North,8.1,16.1,N/A,,Clear,10,2012-09-22 17:55:00
1:15 PM,62.2,18.5,18,30.29,10.0,North,11.5,18.4,N/A,,Clear,360,2012-09-22 18:15:00
1:35 PM,63.0,15.1,16,30.29,10.0,North,10.4,16.1,N/A,,Clear,10,2012-09-22 18:35:00
1:55 PM,63.7,14.0,15,30.28,10.0,NNE,10.4,17.3,N/A,,Clear,20,2012-09-22 18:55:00
2:15 PM,64.6,12.4,13,30.27,10.0,North,6.9,-,N/A,,Clear,360,2012-09-22 19:15:00
2:35 PM,65.3,8.4,11,30.27,10.0,North,6.9,17.3,N/A,,Clear,10,2012-09-22 19:35:00
2:55 PM,65.1,8.1,11,30.27,10.0,North,12.7,-,N/A,,Clear,10,2012-09-22 19:55:00
3:15 PM,65.5,5.7,9,30.27,10.0,North,9.2,-,N/A,,Clear,360,2012-09-22 20:15:00
3:35 PM,66.2,6.3,9,30.26,10.0,North,9.2,-,N/A,,Clear,360,2012-09-22 20:35:00
3:55 PM,65.8,6.8,10,30.26,10.0,North,8.1,11.5,N/A,,Clear,360,2012-09-22 20:55:00
4:15 PM,66.2,4.5,9,30.25,10.0,NE,8.1,-,N/A,,Clear,40,2012-09-22 21:15:00
4:35 PM,66.7,5.9,9,30.25,10.0,North,10.4,-,N/A,,Clear,360,2012-09-22 21:35:00
4:55 PM,66.2,5.7,9,30.24,10.0,North,8.1,-,N/A,,Clear,360,2012-09-22 21:55:00
5:15 PM,66.4,4.6,9,30.24,10.0,NNW,9.2,17.3,N/A,,Clear,340,2012-09-22 22:15:00
5:35 PM,66.2,6.3,9,30.24,10.0,NNE,11.5,-,N/A,,Clear,20,2012-09-22 22:35:00
5:55 PM,65.8,5.2,9,30.24,10.0,North,5.8,-,N/A,,Clear,10,2012-09-22 22:55:00
6:15 PM,64.9,5.5,10,30.24,10.0,NNE,5.8,-,N/A,,Clear,30,2012-09-22 23:15:00
6:35 PM,64.0,7.7,11,30.24,10.0,NNE,5.8,-,N/A,,Clear,30,2012-09-22 23:35:00
6:55 PM,62.1,12.7,15,30.24,10.0,NE,4.6,-,N/A,,Clear,40,2012-09-22 23:55:00
7:15 PM,59.7,14.0,17,30.24,10.0,NNE,4.6,-,N/A,,Clear,30,2012-09-23 00:15:00
7:35 PM,58.5,14.4,18,30.24,10.0,NE,3.5,-,N/A,,Clear,50,2012-09-23 00:35:00
7:55 PM,56.7,17.2,21,30.25,10.0,NE,3.5,-,N/A,,Clear,40,2012-09-23 00:55:00
8:15 PM,55.8,17.6,22,30.25,10.0,ENE,3.5,-,N/A,,Clear,60,2012-09-23 01:15:00
8:35 PM,53.6,20.5,27,30.26,10.0,ENE,4.6,-,N/A,,Clear,60,2012-09-23 01:35:00
8:55 PM,52.2,20.7,29,30.26,10.0,ENE,3.5,-,N/A,,Clear,60,2012-09-23 01:55:00
9:15 PM,50.9,21.6,32,30.27,10.0,Calm,Calm,-,N/A,,Clear,0,2012-09-23 02:15:00
9:35 PM,49.3,23.2,36,30.27,10.0,Calm,Calm,-,N/A,,Clear,0,2012-09-23 02:35:00
9:55 PM,48.2,26.4,43,30.27,10.0,Calm,Calm,-,N/A,,Clear,0,2012-09-23 02:55:00
10:15 PM,47.1,25.9,44,30.27,10.0,Calm,Calm,-,N/A,,Clear,0,2012-09-23 03:15:00
10:35 PM,47.3,25.0,42,30.27,10.0,Calm,Calm,-,N/A,,Clear,0,2012-09-23 03:35:00
10:55 PM,44.2,27.3,51,30.28,10.0,Calm,Calm,-,N/A,,Clear,0,2012-09-23 03:55:00
11:15 PM,43.0,28.6,57,30.28,10.0,Calm,Calm,-,N/A,,Clear,0,2012-09-23 04:15:00
11:35 PM,42.6,27.9,56,30.29,10.0,Calm,Calm,-,N/A,,Clear,0,2012-09-23 04:35:00
11:55 PM,41.5,29.5,62,30.29,10.0,Calm,Calm,-,N/A,,Clear,0,2012-09-23 04:55:00